Home   Weather   Chhapra   Past weeks

Flag for India Past Weather in Chhapra, Bihar, India — Yesterday and Last 2 Weeks

Now
100 °F

Passing clouds.


Feels Like: 101 °F
Forecast: 80 / 104 °F
Wind: 9 mph from West

Location: Patna Airport

Current Time: Apr 25, 2017 at 6:31:32 pm

Latest Report: Apr 25, 2017 at 5:00 pm


Visibility: 4 mi

Pressure: 29.50 "Hg

Humidity: 27%

Dew Point: 61 °F

Location of ChhapraLocation

Past Weather in Chhapra — Graph

°F

Chhapra Temperature Yesterday

Maximum temperature yesterday: 99 °F (at 3:00 pm)
Minimum temperature yesterday: 72 °F (at 5:30 am)
Average temperature yesterday: 89 °F

High & Low Weather Summary for the Past Weeks

 TemperatureHumidityPressure
High104 °F (Apr 25, 12:30 pm)94% (Apr 22, 5:30 am)29.80 "Hg (Apr 22, 5:30 am)
Low66 °F (Apr 12, 5:30 am)8% (Apr 11, 1:30 pm)29.50 "Hg (Apr 19, 3:30 pm)
Average88 °F52%29.64 "Hg
* Reported Apr 10 4:30 pm — Apr 25 5:00 pm, Chhapra, Weather by CustomWeather, © 2017

Note: Actual official high and low records may vary slightly from our data, if they occured in-between our weather recording intervals... More about our weather records

Advertising

Chhapra Weather History for the Previous 24 Hours

Scroll right to see more
 ConditionsComfort  
Time TempWeatherWind HumidityBarometerVisibility
5:00 pm
Tue, Apr 25
100 °FPassing clouds.9 mph27%29.50 "Hg4 mi
4:30 pm102 °FPassing clouds.12 mph26%29.50 "Hg4 mi
4:00 pm102 °FPassing clouds.12 mph29%29.50 "Hg4 mi
3:30 pm102 °FPassing clouds.12 mph29%29.50 "Hg4 mi
3:00 pm104 °FScattered clouds.12 mph26%29.53 "Hg4 mi
2:30 pm104 °FScattered clouds.12 mph26%29.53 "Hg4 mi
2:00 pm104 °FScattered clouds.9 mph28%29.53 "Hg4 mi
1:30 pm104 °FScattered clouds.12 mph26%29.56 "Hg4 mi
12:30 pm104 °FClear.9 mph26%29.59 "Hg3 mi
12:00 pm102 °FHaze.7 mph29%29.59 "Hg3 mi
11:30 am100 °FHaze.5 mph31%29.62 "Hg3 mi
11:00 am97 °FHaze.6 mph37%29.62 "Hg3 mi
10:30 am97 °FHaze.7 mph37%29.59 "Hg2 mi
10:00 am95 °FHaze.8 mph41%29.62 "Hg2 mi
9:00 am90 °FHaze.5 mph52%29.62 "Hg2 mi
8:30 am90 °FHaze.7 mph52%29.62 "Hg2 mi
8:00 am84 °FHaze.No wind62%29.62 "Hg1 mi
7:00 am79 °FHaze.No wind79%29.59 "Hg1 mi
6:30 am79 °FHaze.No wind79%29.59 "Hg1 mi
5:30 am77 °FHaze.No wind83%29.56 "Hg1 mi
9:00 pm
Mon, Apr 24
84 °FHaze.No wind70%29.59 "Hg2 mi
8:30 pm86 °FHaze.No wind66%29.59 "Hg2 mi
8:00 pm88 °FHaze.No wind62%29.59 "Hg2 mi
7:30 pm88 °FHaze.No wind62%29.56 "Hg2 mi
7:00 pm90 °FHaze.No wind59%29.56 "Hg2 mi
6:30 pm91 °FHaze.No wind52%29.53 "Hg2 mi
6:00 pm93 °FHaze.3 mph49%29.53 "Hg3 mi
Weather by CustomWeather, © 2017

See weather overviewHow to use our weather pages